Weather History for Marianna, FL

Change the Weather History Date:

Monday, January 27, 2014

  Actual Average Record
Temperature  
Mean Temperature 61 °F 51 °F  
Max Temperature 73 °F 62 °F 75 °F (2009)
Min Temperature 48 °F 40 °F 27 °F (2000)
Degree Days  
Heating Degree Days 4    
Month to date heating degree days 505  
Since 1 July heating degree days 1068  
Cooling Degree Days 0    
Month to date cooling degree days 0  
Year to date cooling degree days 0  
Growing Degree Days 10 (Base 50)    
Moisture  
Dew Point 53 °F    
Average Humidity 77    
Maximum Humidity 100    
Minimum Humidity 53    
Precipitation  
Precipitation 0.07 in 0.19 in 0.52 in (2007)
Month to date precipitation 2.16 4.30  
Year to date precipitation 2.16 4.30  
Sea Level Pressure  
Sea Level Pressure 29.96 in    
Wind  
Wind Speed 7 mph (WSW)    
Max Wind Speed 15 mph    
Max Gust Speed 21 mph    
Visibility 8 miles    
Events Rain    
T = Trace of Precipitation, MM = Missing Value Source: NWS Daily Summary

Daily Weather History Graph

Daily Weather History Graph

Search for Another Location

Airport:

Trip Planner

Search our weather history database for the weather conditions in past years. The results will help you decide how hot, cold, wet, or windy it might be!

Date:

Astronomy

Jan. 27, 2014 Rise Set
Actual Time 6:35 AM CST 5:12 PM CST
Civil Twilight 6:09 AM CST 5:37 PM CST
Nautical Twilight 5:40 AM CST 6:06 PM CST
Astronomical Twilight 5:11 AM CST 6:35 PM CST
Moon 3:12 AM CST (1/27) 2:00 PM CST (1/27)
Length of Visible Light 11h 28m
Length of Day
10h 37m
Waning Crescent, 14% of the Moon is Illuminated
Jan 27
Waning Crescent
Jan 30
New
Feb 6
First Quarter
Feb 14
Full
Feb 22
Last Quarter

Hourly Weather History & Observations

Time (CST) Temp. Dew Point Humidity Pressure Visibility Wind Dir Wind Speed Gust Speed Precip Events Conditions
12:53 AM 48.9 °F 45.0 °F 86% 29.96 in 10.0 mi South 6.9 mph - N/A   Scattered Clouds
1:53 AM 51.1 °F 48.0 °F 89% 29.94 in 10.0 mi South 8.1 mph - N/A   Mostly Cloudy
2:53 AM 51.1 °F 48.0 °F 89% 29.95 in 10.0 mi South 3.5 mph - N/A   Scattered Clouds
3:53 AM 52.0 °F 48.9 °F 89% 29.93 in 10.0 mi SE 3.5 mph - 0.00 in Rain Light Rain
4:53 AM 51.1 °F 48.9 °F 92% 29.94 in 10.0 mi South 3.5 mph - 0.01 in   Mostly Cloudy
5:26 AM 51.8 °F 48.2 °F 88% 29.94 in 9.0 mi South 4.6 mph - N/A   Partly Cloudy
5:53 AM 52.0 °F 50.0 °F 93% 29.95 in 10.0 mi South 3.5 mph - N/A   Clear
6:53 AM 50.0 °F 48.0 °F 93% 29.96 in 2.5 mi Calm Calm - N/A   Scattered Clouds
7:03 AM 50.0 °F 48.2 °F 94% 29.95 in 1.2 mi Calm Calm - N/A   Mostly Cloudy
7:15 AM 51.8 °F 48.2 °F 88% 29.97 in 3.0 mi Calm Calm - N/A   Partly Cloudy
7:53 AM 54.0 °F 51.1 °F 90% 29.97 in 10.0 mi Calm Calm - N/A   Clear
8:53 AM 61.0 °F 54.0 °F 78% 29.97 in 10.0 mi South 9.2 mph - N/A   Partly Cloudy
9:53 AM 64.9 °F 55.0 °F 70% 29.97 in 10.0 mi SSW 10.4 mph - N/A   Partly Cloudy
10:53 AM 70.0 °F 54.0 °F 57% 29.96 in 10.0 mi WSW 9.2 mph - N/A   Mostly Cloudy
11:53 AM 71.1 °F 53.1 °F 53% 29.92 in 10.0 mi SSW 11.5 mph - N/A   Mostly Cloudy
12:53 PM 72.0 °F 54.0 °F 53% 29.90 in 10.0 mi SW 10.4 mph - N/A   Mostly Cloudy
1:53 PM 69.1 °F 55.9 °F 63% 29.89 in 10.0 mi SW 12.7 mph - 0.00 in Rain Light Rain
2:53 PM 68.0 °F 55.0 °F 63% 29.89 in 10.0 mi WSW 11.5 mph - 0.00 in   Overcast
3:53 PM 62.1 °F 57.9 °F 86% 29.92 in 10.0 mi SW 9.2 mph - 0.04 in Rain Light Rain
4:53 PM 60.1 °F 59.0 °F 96% 29.93 in 9.0 mi SW 3.5 mph - 0.00 in Rain Light Rain
5:14 PM 60.8 °F 59.0 °F 94% 29.95 in 10.0 mi NNW 8.1 mph - 0.00 in Rain Light Rain
5:22 PM 60.8 °F 59.0 °F 94% 29.94 in 7.0 mi NNW 4.6 mph - 0.01 in Rain Light Rain
5:37 PM 60.8 °F 59.0 °F 94% 29.94 in 6.0 mi Calm Calm - 0.01 in Rain Light Rain
5:53 PM 60.1 °F 57.9 °F 93% 29.95 in 10.0 mi NNW 9.2 mph - 0.01 in   Overcast
6:03 PM 59.0 °F 57.2 °F 94% 29.95 in 7.0 mi North 10.4 mph - N/A   Overcast
6:35 PM 57.2 °F 55.4 °F 94% 29.97 in 9.0 mi NNE 8.1 mph - 0.01 in Rain Light Rain
6:53 PM 57.0 °F 55.9 °F 96% 29.97 in 10.0 mi North 5.8 mph - 0.01 in   Overcast
7:12 PM 57.2 °F 55.4 °F 94% 29.99 in 9.0 mi North 5.8 mph - 0.00 in Rain Light Rain
7:53 PM 57.0 °F 55.9 °F 96% 30.00 in 10.0 mi North 3.5 mph - 0.00 in   Overcast
8:53 PM 57.0 °F 55.0 °F 93% 29.98 in 8.0 mi NE 4.6 mph - N/A   Overcast
9:53 PM 55.9 °F 55.0 °F 97% 30.00 in 10.0 mi NE 3.5 mph - N/A   Overcast
10:53 PM 55.9 °F 54.0 °F 93% 30.01 in 7.0 mi Calm Calm - N/A   Overcast
11:37 PM 55.4 °F 53.6 °F 94% 30.02 in 6.0 mi NNW 4.6 mph - N/A   Overcast
11:44 PM 55.4 °F 53.6 °F 94% 30.02 in 6.0 mi NNW 8.1 mph - N/A   Overcast
11:53 PM 55.0 °F 52.0 °F 89% 30.02 in 9.0 mi NNW 13.8 mph - N/A   Overcast